Satellite: NOAA-11 Catalog number: 19531 Epoch time: 13164.49343876 Element set: 395 Inclination: 098.7108 deg RA of node: 247.6137 deg Eccentricity: 0.0010150 Arg of perigee: 270.6436 deg Mean anomaly: 159.6963 deg Mean motion: 14.15018247 rev/day Decay rate: -1.7e-07 rev/day^2 Epoch rev: 27560 Checksum: 307
Satellite: NOAA-12 Catalog number: 21263 Epoch time: 13164.40170317 Element set: 860 Inclination: 098.6971 deg RA of node: 189.8181 deg Eccentricity: 0.0013221 Arg of perigee: 226.7546 deg Mean anomaly: 246.8721 deg Mean motion: 14.25570191 rev/day Decay rate: 1.4e-07 rev/day^2 Epoch rev: 14801 Checksum: 281
Satellite: MET-3/5 Catalog number: 21655 Epoch time: 13164.37561137 Element set: 713 Inclination: 082.5570 deg RA of node: 256.9845 deg Eccentricity: 0.0014477 Arg of perigee: 137.0460 deg Mean anomaly: 223.1796 deg Mean motion: 13.17044296 rev/day Decay rate: 2.10e-06 rev/day^2 Epoch rev: 4943 Checksum: 296
Satellite: MET-2/21 Catalog number: 22782 Epoch time: 13164.45276197 Element set: 764 Inclination: 082.5501 deg RA of node: 105.8856 deg Eccentricity: 0.0021711 Arg of perigee: 216.4323 deg Mean anomaly: 297.1352 deg Mean motion: 13.83707895 rev/day Decay rate: 6.4e-07 rev/day^2 Epoch rev: 99912 Checksum: 317
Satellite: OKEAN-4 Catalog number: 23317 Epoch time: 13163.81467668 Element set: 243 Inclination: 082.5395 deg RA of node: 053.8898 deg Eccentricity: 0.0019951 Arg of perigee: 237.5737 deg Mean anomaly: 190.9359 deg Mean motion: 14.84487675 rev/day Decay rate: 4.66e-06 rev/day^2 Epoch rev: 829 Checksum: 356
Satellite: NOAA-14 Catalog number: 23455 Epoch time: 13164.46392484 Element set: 346 Inclination: 098.8029 deg RA of node: 248.9592 deg Eccentricity: 0.0009392 Arg of perigee: 015.6703 deg Mean anomaly: 049.3733 deg Mean motion: 14.13910570 rev/day Decay rate: -7.8e-07 rev/day^2 Epoch rev: 95184 Checksum: 326
Satellite: NOAA-15 Catalog number: 25338 Epoch time: 13164.50661265 Element set: 765 Inclination: 098.7237 deg RA of node: 154.7313 deg Eccentricity: 0.0011694 Arg of perigee: 135.3752 deg Mean anomaly: 333.6857 deg Mean motion: 14.25229291 rev/day Decay rate: 9.8e-07 rev/day^2 Epoch rev: 78432 Checksum: 322
Satellite: RESURS Catalog number: 25394 Epoch time: 13164.50549755 Element set: 398 Inclination: 098.3608 deg RA of node: 140.5209 deg Eccentricity: 0.0000444 Arg of perigee: 198.7675 deg Mean anomaly: 269.3722 deg Mean motion: 14.24332096 rev/day Decay rate: -1.6e-07 rev/day^2 Epoch rev: 77583 Checksum: 321
Satellite: FENGYUN1 Catalog number: 25730 Epoch time: 13164.50211162 Element set: 894 Inclination: 098.8769 deg RA of node: 124.0587 deg Eccentricity: 0.0026991 Arg of perigee: 058.8699 deg Mean anomaly: 065.0661 deg Mean motion: 14.10541159 rev/day Decay rate: 4.16e-06 rev/day^2 Epoch rev: 72552 Checksum: 314
Satellite: OKEAN-0 Catalog number: 25860 Epoch time: 13164.78785773 Element set: 970 Inclination: 097.9893 deg RA of node: 127.2826 deg Eccentricity: 0.0001967 Arg of perigee: 121.8576 deg Mean anomaly: 299.3538 deg Mean motion: 14.74613811 rev/day Decay rate: 2.22e-06 rev/day^2 Epoch rev: 74785 Checksum: 352
Satellite: NOAA-16 Catalog number: 26536 Epoch time: 13164.45419113 Element set: 245 Inclination: 099.0432 deg RA of node: 217.1834 deg Eccentricity: 0.0011474 Arg of perigee: 143.2335 deg Mean anomaly: 334.8903 deg Mean motion: 14.12885345 rev/day Decay rate: -1.2e-07 rev/day^2 Epoch rev: 65604 Checksum: 281
Satellite: NOAA-17 Catalog number: 27453 Epoch time: 13164.50317480 Element set: 162 Inclination: 098.3122 deg RA of node: 178.7800 deg Eccentricity: 0.0012282 Arg of perigee: 171.2756 deg Mean anomaly: 336.9251 deg Mean motion: 14.24595887 rev/day Decay rate: 2.4e-07 rev/day^2 Epoch rev: 57019 Checksum: 302
Satellite: NOAA-18 Catalog number: 28654 Epoch time: 13164.47923865 Element set: 649 Inclination: 099.0986 deg RA of node: 132.6423 deg Eccentricity: 0.0013759 Arg of perigee: 215.2065 deg Mean anomaly: 291.8325 deg Mean motion: 14.11825218 rev/day Decay rate: 2.16e-06 rev/day^2 Epoch rev: 41553 Checksum: 320
Satellite: NOAA-19 Catalog number: 33591 Epoch time: 13164.48992194 Element set: 832 Inclination: 098.9027 deg RA of node: 106.5836 deg Eccentricity: 0.0015271 Arg of perigee: 081.8335 deg Mean anomaly: 026.7436 deg Mean motion: 14.11513115 rev/day Decay rate: 6.4e-07 rev/day^2 Epoch rev: 22397 Checksum: 308
/EX SB KEPS @ AMSAT $ORB13164.M Orbital Elements 13164.MISC
HR AMSAT ORBITAL ELEMENTS FOR MANNED AND MISCELLANEOUS SATELLITES FROM WA5QGD FORT WORTH,TX June 13, 2013 BID: ORB13164.M TO ALL RADIO AMATEURS BT
Satellite: HUBBLE Catalog number: 20580 Epoch time: 13163.75160075 Element set: 260 Inclination: 028.4704 deg RA of node: 301.9100 deg Eccentricity: 0.0003138 Arg of perigee: 308.2990 deg Mean anomaly: 144.9090 deg Mean motion: 15.03683637 rev/day Decay rate: 1.016e-05 rev/day^2 Epoch rev: 6902 Checksum: 255
Satellite: ISS Catalog number: 25544 Epoch time: 13164.89575256 Element set: 998 Inclination: 051.6483 deg RA of node: 124.6645 deg Eccentricity: 0.0010904 Arg of perigee: 067.6023 deg Mean anomaly: 341.0605 deg Mean motion: 15.50774041 rev/day Decay rate: 4.423e-05 rev/day^2 Epoch rev: 83419 Checksum: 300
Satellite: CO-58 Catalog number: 28895 Epoch time: 13164.58915405 Element set: 499 Inclination: 097.8711 deg RA of node: 020.0885 deg Eccentricity: 0.0019108 Arg of perigee: 094.2044 deg Mean anomaly: 266.1342 deg Mean motion: 14.61127123 rev/day Decay rate: 3.05e-06 rev/day^2 Epoch rev: 40641 Checksum: 302
Satellite: FALCON Catalog number: 30776 Epoch time: 13164.58231953 Element set: 634 Inclination: 035.4297 deg RA of node: 224.3467 deg Eccentricity: 0.0002066 Arg of perigee: 260.8760 deg Mean anomaly: 217.3992 deg Mean motion: 15.10676290 rev/day Decay rate: 2.293e-05 rev/day^2 Epoch rev: 34487 Checksum: 308
Satellite: MAST Catalog number: 31126 Epoch time: 13164.57902088 Element set: 778 Inclination: 097.8807 deg RA of node: 160.7059 deg Eccentricity: 0.0094403 Arg of perigee: 064.6068 deg Mean anomaly: 049.2387 deg Mean motion: 14.54580516 rev/day Decay rate: 3.12e-06 rev/day^2 Epoch rev: 32679 Checksum: 320
Satellite: CAPE1 Catalog number: 31130 Epoch time: 13164.67327195 Element set: 786 Inclination: 097.8976 deg RA of node: 157.1458 deg Eccentricity: 0.0102069 Arg of perigee: 079.6735 deg Mean anomaly: 281.5950 deg Mean motion: 14.53494705 rev/day Decay rate: 4.91e-06 rev/day^2 Epoch rev: 32626 Checksum: 331
Satellite: COMPASS Catalog number: 32787 Epoch time: 13164.16309217 Element set: 648 Inclination: 097.7530 deg RA of node: 222.8310 deg Eccentricity: 0.0013242 Arg of perigee: 319.8813 deg Mean anomaly: 040.1423 deg Mean motion: 14.85521508 rev/day Decay rate: 7.68e-06 rev/day^2 Epoch rev: 27736 Checksum: 291
Satellite: AAUSAT2 Catalog number: 32788 Epoch time: 13163.76896401 Element set: 633 Inclination: 097.7539 deg RA of node: 223.0720 deg Eccentricity: 0.0012782 Arg of perigee: 321.3061 deg Mean anomaly: 038.7238 deg Mean motion: 14.85982083 rev/day Decay rate: 1.070e-05 rev/day^2 Epoch rev: 27734 Checksum: 307
Satellite: DO-64 Catalog number: 32789 Epoch time: 13164.81815968 Element set: 663 Inclination: 097.7685 deg RA of node: 227.8481 deg Eccentricity: 0.0012146 Arg of perigee: 309.5442 deg Mean anomaly: 114.6127 deg Mean motion: 14.88604081 rev/day Decay rate: 1.741e-05 rev/day^2 Epoch rev: 27762 Checksum: 338
Satellite: CO-66 Catalog number: 32791 Epoch time: 13164.19837287 Element set: 633 Inclination: 097.7530 deg RA of node: 222.2335 deg Eccentricity: 0.0013819 Arg of perigee: 321.2033 deg Mean anomaly: 071.6449 deg Mean motion: 14.84655542 rev/day Decay rate: 7.46e-06 rev/day^2 Epoch rev: 27728 Checksum: 320
Satellite: RS-30 Catalog number: 32953 Epoch time: 13164.84109623 Element set: 942 Inclination: 082.5045 deg RA of node: 070.2749 deg Eccentricity: 0.0017338 Arg of perigee: 239.9298 deg Mean anomaly: 120.0058 deg Mean motion: 12.43034434 rev/day Decay rate: 1.0e-07 rev/day^2 Epoch rev: 22949 Checksum: 287
Satellite: METEOR-M Catalog number: 35865 Epoch time: 13164.77780709 Element set: 537 Inclination: 098.6021 deg RA of node: 217.2855 deg Eccentricity: 0.0003333 Arg of perigee: 082.1931 deg Mean anomaly: 277.9620 deg Mean motion: 14.21888058 rev/day Decay rate: -9.0e-08 rev/day^2 Epoch rev: 19398 Checksum: 324
Satellite: RS-38 Catalog number: 35869 Epoch time: 13164.74133901 Element set: 497 Inclination: 098.5968 deg RA of node: 217.1659 deg Eccentricity: 0.0005544 Arg of perigee: 082.7570 deg Mean anomaly: 277.4235 deg Mean motion: 14.22132501 rev/day Decay rate: 4.1e-07 rev/day^2 Epoch rev: 19400 Checksum: 309
Satellite: JUGNU Catalog number: 37839 Epoch time: 13163.86406829 Element set: 406 Inclination: 019.9626 deg RA of node: 332.9810 deg Eccentricity: 0.0018972 Arg of perigee: 236.3168 deg Mean anomaly: 270.6084 deg Mean motion: 14.12160330 rev/day Decay rate: 3.31e-06 rev/day^2 Epoch rev: 8628 Checksum: 300
Satellite: SRMSAT Catalog number: 37841 Epoch time: 13163.84067344 Element set: 408 Inclination: 019.9732 deg RA of node: 345.0907 deg Eccentricity: 0.0011782 Arg of perigee: 189.2943 deg Mean anomaly: 293.6014 deg Mean motion: 14.10229722 rev/day Decay rate: 3.32e-06 rev/day^2 Epoch rev: 8615 Checksum: 291
Satellite: RAX-2 Catalog number: 37853 Epoch time: 13164.59117880 Element set: 526 Inclination: 101.7142 deg RA of node: 016.5588 deg Eccentricity: 0.0235176 Arg of perigee: 037.8543 deg Mean anomaly: 356.5273 deg Mean motion: 14.83663168 rev/day Decay rate: 3.022e-05 rev/day^2 Epoch rev: 8791 Checksum: 316
